www.pogodaiklimat.ru

Погода и климат >> Архив погоды >> Австралия >> Тасмания >> Хобарт аэропорт


АРХИВ ПОГОДЫ в Хобарт аэропорту

Время (UTC), дата Ветер
(напр.,м/с)
 
Видим.   Явления Облачность Т
(С)
Тd
(С)
f
(%)
Тe
(С)
Тes
(С)
Комфортность P
(гПа)
Po
(гПа)
Тmin
(С)
Tmax
(С)
R
(мм)
R24
(мм)
S
(см)
10 9.07 С 3 н/о н/о +10.7 +5.5 70 +9 +9 тепло 1008.1 1004.8
11 9.07 С 3 40 км 9/9 1000 м
[Sc Ac As Ci sp]
+10.1 +6.0 76 +8 +8 тепло 1008.1 1004.8
12 9.07 СЗ 4 н/о н/о +11.4 +4.6 63 +10 +10 тепло 1007.9 1004.6
13 9.07 СЗ 4 н/о н/о +10.9 +5.2 68 +9 +9 тепло 1007.6 1004.3
14 9.07 СЗ 7 40 км 9/1 1000 м
[Sc Ac As Ci sp]
+11.1 +4.5 64 +8 +8 тепло 1006.7 1003.4 +14.8
15 9.07 СЗ 5 н/о н/о +10.9 +4.2 63 +8 +8 тепло 1006.2 1002.9
16 9.07 СЗ 3 н/о н/о +10.6 +3.8 63 +9 +9 тепло 1005.9 1002.6
17 9.07 СЗ 4 40 км 9/1 1000 м
[Sc Ac As Ci sp]
+10.7 +3.7 62 +9 +9 тепло 1005.3 1002.0
18 9.07 СЗ 4 н/о н/о +10.0 +4.2 67 +7 +7 тепло 1005.0 1001.7
19 9.07 С 5 н/о н/о +9.1 +3.9 70 +6 +6 тепло 1004.5 1001.2
20 9.07 СЗ 4 40 км 9/1 1000 м
[Sc Ac As Ci sp]
+9.5 +4.1 69 +7 +7 тепло 1004.4 1001.1
21 9.07 С 3 н/о н/о +8.1 +4.0 75 +5 +5 по сезону 1004.1 1000.8
22 9.07 СЗ 4 н/о н/о +8.4 +3.8 73 +6 +6 тепло 1003.3 1000.0
23 9.07 С 3 40 км 9/1 1000 м
[Sc Ac trans Ci sp]
+9.3 +3.6 68 +7 +7 тепло 1003.3 1000.0
00 10.07 СВ 4 н/о н/о +11.4 +4.6 63 +9 +9 тепло 1002.2 998.9
01 10.07 СВ 5 н/о н/о +12.3 +6.0 65 +10 +10 тепло 1001.0 997.7
02 10.07 С 5 40 км 9/5 1000 м
[Cu Sc Ac trans Ci sp]
+14.1 +4.7 53 +13 +13 тепло 999.2 995.9 +7.7
03 10.07 С 5 н/о н/о +15.0 +4.0 48 +14 +14 тепло 997.4 994.2
04 10.07 С 6 н/о н/о +16.1 +3.0 41 +15 +15 тепло 996.1 992.8
05 10.07 С 7 40 км 9/4 1500 м
[Cu Sc Ci sp]
+15.3 +2.4 42 +14 +14 тепло 995.0 991.7
06 10.07 С 9 н/о н/о +14.2 +3.2 47 +12 +12 тепло 993.7 990.4
07 10.07 С 9 н/о н/о +13.6 +2.9 48 +11 +11 тепло 992.9 989.6
08 10.07 С 7 40 км 9/3 1000 м
[Sc Ac trans Ci sp]
+13.5 +2.8 48 +11 +11 тепло 992.4 989.1
09 10.07 С 7 н/о н/о +12.9 +2.5 49 +10 +10 тепло 992.2 988.9
10 10.07 С 7 н/о н/о +12.5 +2.8 52 +10 +10 тепло 992.1 988.8
11 10.07 С 4 40 км 9/9 1000 м
[Sc Ac trans Ci sp]
+12.6 +3.5 54 +11 +11 тепло 991.7 988.4
12 10.07 С 4 н/о н/о +12.0 +4.4 60 +10 +10 тепло 990.4 987.1
13 10.07 С 7 н/о н/о +12.2 +3.3 54 +10 +10 тепло 989.8 986.5
14 10.07 С 6 40 км осадки на расстоянии 10/10 600 м
[Sc]
+11.6 +5.2 65 +9 +9 тепло 988.6 985.3 +16.4
15 10.07 С 6 н/о н/о +11.8 +5.4 65 +9 +9 тепло 986.7 983.4
16 10.07 С 6 н/о н/о +12.2 +5.4 63 +10 +10 тепло 985.1 981.8
17 10.07 З 4 24 км слаб. ливневой дождь 10/9 600 м
[Sc Ac trans]
+9.9 +7.4 84 +7 +7 тепло 985.3 982.0
18 10.07 СЗ 5 н/о н/о +9.5 +6.3 80 +6 +6 по сезону 986.3 983.0
19 10.07 С 4 н/о н/о +8.6 +4.8 77 +6 +6 тепло 986.4 983.1
20 10.07 СЗ 5 40 км осадки на расстоянии {ливн. осадки} 10/1 1000 м
[Sc Ac trans]
+8.8 +3.0 67 +6 +6 тепло 987.0 983.7
21 10.07 С 5 н/о н/о +8.2 +2.8 69 +5 +5 по сезону 987.9 984.6
22 10.07 С 6 н/о н/о +8.1 +3.0 70 +4 +4 тепло 988.7 985.4
23 10.07 С 5 40 км осадки на расстоянии 4/4 1000 м
[Sc Ci sp]
+9.5 +3.1 64 +6 +7 по сезону 989.3 986.0
00 11.07 С 4 н/о н/о +10.4 +4.7 68 +8 +8 по сезону 989.8 986.5
01 11.07 СЗ 6 н/о н/о +11.3 +2.1 53 +9 +9 тепло 989.6 986.3
02 11.07 СЗ 5 40 км осадки на расстоянии {ливн. осадки} 6/6 1000 м
[Cu Sc]
+11.7 +3.4 57 +10 +10 тепло 989.3 986.0 +7.9
03 11.07 СЗ 9 н/о н/о +13.0 +2.1 47 +10 +10 по сезону 988.8 985.5
04 11.07 СЗ 9 н/о н/о +13.5 +1.9 45 +11 +11 тепло 989.1 985.8
05 11.07 СЗ 6 40 км 8/3 1000 м
[Cu Sc Ac trans]
+12.5 +3.4 54 +10 +10 тепло 990.0 986.7
06 11.07 СЗ 5 н/о н/о +11.4 +2.8 55 +9 +9 по сезону 990.8 987.5
07 11.07 СЗ 5 н/о н/о +9.6 +3.2 64 +7 +7 тепло 991.2 987.9
08 11.07 СЗ 5 40 км осадки на расстоянии 4/4 600 м
[Sc]
+8.9 +3.4 68 +6 +6 по сезону 991.9 988.6
09 11.07 С 4 н/о н/о +8.8 +3.0 67 +6 +6 по сезону 992.3 989.0
10 11.07 СЗ 7 н/о н/о +8.9 +2.6 65 +5 +5 тепло 992.8 989.5
11 11.07 С 4 40 км 4/4 600 м
[Cu Sc Ci sp]
+8.4 +3.1 69 +6 +6 тепло 992.7 989.4
12 11.07 СЗ 6 н/о н/о +8.7 +1.8 62 +5 +5 по сезону 992.5 989.2
13 11.07 С 5 н/о н/о +8.8 +1.9 62 +6 +6 тепло 992.3 989.0
14 11.07 С 5 40 км 9/1 600 м
[Sc Ac As Ci sp]
+8.3 +2.1 65 +5 +5 тепло 991.0 987.7 +13.9
15 11.07 СЗ 5 н/о н/о +8.8 +2.7 66 +6 +6 по сезону 990.0 986.7
16 11.07 С 6 н/о н/о +7.2 +5.2 87 +3 +3 тепло 990.2 986.9
17 11.07 С 6 15 км слаб. ливневой дождь 9/9 600 м
[Cu Sc]
+7.2 +5.0 86 +3 +3 по сезону 989.0 985.7
18 11.07 СЗ 6 н/о н/о +7.3 +3.3 76 +3 +3 по сезону 988.7 985.4
19 11.07 СЗ 10 н/о н/о +8.4 +2.3 65 +4 +4 тепло 988.9 985.6
20 11.07 З 9 40 км {ливн. осадки} 1/1 600 м
[Cu hum]
+8.6 +1.4 61 +4 +4 по сезону 989.0 985.7
21 11.07 СЗ 6 н/о н/о +8.1 +1.6 64 +4 +4 по сезону 989.4 986.1
22 11.07 С 5 н/о н/о +7.3 +2.8 73 +4 +4 по сезону 990.2 986.9
23 11.07 СЗ 9 15 км слаб. ливневой дождь 8/8 600 м
[Sc]
+8.5 +2.4 65 +4 +4 по сезону 990.9 987.6
00 12.07 СЗ 7 н/о н/о +7.6 +2.6 71 +3 +3 прохладно 991.1 987.8
01 12.07 СЗ 9 н/о н/о +9.2 +2.4 62 +5 +5 по сезону 991.1 987.8
02 12.07 СЗ 5 30 км в посл. час ливневой дождь 6/6 300 м
[Sc]
+6.9 +2.3 72 +3 +4 по сезону 991.2 987.9 +6.7
03 12.07 СЗ 5 н/о н/о +8.8 +3.5 69 +5 +5 прохладно 990.7 987.4
04 12.07 СЗ 10 н/о н/о +8.6 +1.9 63 +4 +4 по сезону 990.2 986.9
05 12.07 СЗ 10 40 км осадки на расстоянии 3/1 600 м
[Cu Sc Ac As Ci ing]
+8.3 +0.1 56 +4 +4 прохладно 990.5 987.2
06 12.07 С 6 н/о н/о +7.1 +2.0 70 +3 +3 холодно 990.7 987.4
07 12.07 С 5 н/о н/о +7.1 +0.9 65 +4 +4 по сезону 991.5 988.2
08 12.07 С 5 40 км осадки на расстоянии 9/9 600 м
[Sc]
+6.9 +0.9 66 +3 +3 по сезону 992.4 989.1
09 12.07 СЗ 8 н/о н/о +6.8 +1.1 67 +2 +2 прохладно 992.1 988.8
10 12.07 СЗ 6 н/о н/о +6.5 +1.6 71 +2 +2 тепло 992.7 989.4
11 12.07 СЗ 7 40 км 4/1 600 м
[Sc Ac trans Ci sp]
+6.4 +1.5 71 +2 +2 по сезону 992.4 989.1
12 12.07 СЗ 5 н/о н/о +6.1 +1.4 72 +2 +2 прохладно 993.0 989.7
13 12.07 СЗ 5 н/о н/о +5.7 +1.2 73 +1 +1 по сезону 993.0 989.7
14 12.07 С 6 40 км 4/1 600 м
[Sc Ci sp]
+5.9 +0.6 69 +1 +1 по сезону 992.3 989.0 +10.2
15 12.07 СЗ 7 н/о н/о +6.1 +0.5 67 +1 +1 прохладно 992.7 989.4
16 12.07 СЗ 10 н/о н/о +5.9 +1.2 72 0 0 по сезону 992.7 989.4
17 12.07 СЗ 6 40 км 6/1 600 м
[Sc Ac trans Ci sp]
+5.7 +1.2 73 +1 +1 по сезону 993.6 990.3
18 12.07 СЗ 6 н/о н/о +5.3 +1.0 74 0 0 прохладно 993.8 990.5
19 12.07 СЗ 4 н/о н/о +4.5 +1.2 79 0 0 по сезону 995.2 991.9
20 12.07 З 4 40 км в посл. час ливневой дождь 6/1 1000 м
[Cu Sc Ac trans Ci sp]
+5.2 +0.6 72 +2 +2 по сезону 996.2 992.9
21 12.07 Ю 2 н/о н/о +6.0 +1.0 70 +4 +4 по сезону 997.5 994.3
22 12.07 СЗ 3 н/о н/о +5.9 +2.8 80 +3 +3 по сезону 998.8 995.6
23 12.07 СЗ 4 15 км слаб. ливневой дождь 9/8 300 м
[Cu Sc As op]
+6.1 +3.0 80 +2 +2 по сезону 1000.0 996.7
00 13.07 СЗ 5 н/о н/о +6.7 +3.4 79 +3 +3 прохладно 1000.7 997.4
01 13.07 З 5 н/о н/о +6.4 +3.6 82 +2 +2 по сезону 1002.1 998.8
02 13.07 СЗ 4 18 км слаб. ливневой дождь 9/9 300 м
[Cu med, cong]
+6.4 +3.6 82 +3 +3 по сезону 1003.0 999.7 +4.6
03 13.07 З 8 н/о н/о +7.7 +1.9 67 +3 +3 прохладно 1003.6 1000.3
04 13.07 ЮЗ 7 н/о н/о +8.8 +1.0 58 +5 +5 по сезону 1004.7 1001.4
05 13.07 ЮЗ 8 25 км {ливн. осадки} 6/6 1000 м
[Cu Sc]
+8.9 +0.5 56 +5 +5 по сезону 1005.7 1002.4
06 13.07 ЮЗ 8 н/о н/о +8.2 +0.2 57 +4 +4 холодно 1007.0 1003.7
07 13.07 З 7 н/о н/о +7.2 +0.1 61 +3 +3 по сезону 1008.0 1004.7
08 13.07 З 8 25 км 3/3 600 м
[Cu Sc]
+7.3 -0.8 56 +3 +3 по сезону 1009.3 1006.0
09 13.07 З 4 н/о н/о +6.2 -0.3 63 +3 +3 прохладно 1010.1 1006.8
10 13.07 З 3 н/о н/о +5.3 -0.2 68 +2 +2 тепло 1010.5 1007.2
11 13.07 С 3 40 км 4/3 1000 м
[Sc Ci sp]
+4.9 -0.4 69 +2 +2 по сезону 1010.7 1007.4
12 13.07 СЗ 6 н/о н/о +6.0 -0.9 61 +2 +2 прохладно 1010.6 1007.3
13 13.07 З 6 н/о н/о +6.1 -0.4 63 +2 +2 тепло 1010.2 1006.9
14 13.07 СЗ 6 40 км 1/1 1000 м
[Sc]
+6.2 -0.3 63 +2 +2 по сезону 1009.6 1006.3 +9.2
15 13.07 С 4 н/о н/о +5.5 -0.3 66 +2 +2 по сезону 1008.1 1004.8
17 13.07 С 4 40 км 8/8 1000 м
[Sc]
+5.8 +0.4 68 +2 +2 по сезону 1005.8 1002.5
18 13.07 С 5 н/о н/о +6.2 +0.3 66 +2 +2 по сезону 1003.1 999.8
19 13.07 С 3 н/о н/о +5.7 +1.2 73 +3 +3 тепло 1002.4 999.1
20 13.07 С 4 30 км осадки на расстоянии 6/3 600 м
[Sc Ac trans]
+7.1 +2.0 70 +4 +4 по сезону 1000.4 997.1
21 13.07 СЗ 5 н/о н/о +8.1 +2.9 70 +5 +5 по сезону 1000.0 996.7
22 13.07 СЗ 4 н/о н/о +7.5 +4.1 79 +4 +4 по сезону 1000.5 997.2
23 13.07 З 7 15 км слаб. ливневой дождь 9/9 300 м
[Cu Sc]
+8.3 +4.0 74 +4 +4 по сезону 1000.1 996.8
00 14.07 ЮЗ 3 н/о н/о +8.6 +3.8 72 +6 +6 по сезону 999.9 996.6
01 14.07 Ю 2 н/о н/о +9.7 +1.3 56 +8 +8 тепло 999.6 996.3
02 14.07 З 7 30 км осадки на расстоянии {ливн. осадки} 8/8 600 м
[Cu med, cong Ci sp]
+11.0 +1.3 51 +8 +8 по сезону 998.7 995.4 +3.6
03 14.07 З 9 н/о н/о +9.3 +0.1 53 +5 +5 прохладно 998.4 995.2
04 14.07 З 9 н/о н/о +8.4 +0.5 58 +4 +4 по сезону 998.0 994.8
05 14.07 СЗ 9 30 км осадки на расстоянии {ливн. осадки} 9/6 600 м
[Cu Sc Ac As Ci sp]
+6.9 +1.2 67 +2 +2 прохладно 997.7 994.4
06 14.07 СЗ 9 н/о н/о +6.7 +1.3 68 +1 +1 очень
холодно
997.8 994.6
07 14.07 СЗ 9 н/о н/о +5.7 +1.7 75 0 0 по сезону 998.3 995.1
08 14.07 З 5 25 км слаб. ливневой дождь 9/5 600 м
[Cu Sc Ac As Ci sp]
+5.5 +1.5 75 +1 +1 прохладно 999.3 996.0
09 14.07 З 6 н/о н/о +5.5 +0.9 72 +1 +1 холодно 1000.0 996.7
10 14.07 З 5 н/о н/о +5.3 +1.6 77 +1 +1 по сезону 1001.0 997.7
11 14.07 З 6 30 км в посл. час ливневой дождь 9/4 300 м
[Cu Sc As trans Ci sp]
+5.7 +1.5 74 +1 +1 по сезону 1001.7 998.4
12 14.07 З 5 н/о н/о +5.0 +0.6 73 +1 +1 прохладно 1002.4 999.1
13 14.07 З 6 н/о н/о +6.3 +0.2 65 +2 +2 тепло 1003.4 1000.1
14 14.07 З 5 20 км слаб. морось 9/9 600 м
[Cu Sc]
+6.4 +0.6 66 +3 +3 по сезону 1004.7 1001.4 +11.5
15 14.07 З 5 н/о н/о +6.3 +1.0 69 +2 +2 по сезону 1005.0 1001.7
16 14.07 З 8 н/о н/о +7.9 +1.3 63 +4 +4 тепло 1005.8 1002.5
17 14.07 З 9 25 км слаб. морось 9/9 600 м
[Cu Sc]
+8.8 +1.5 60 +4 +4 по сезону 1007.0 1003.7
18 14.07 З 7 н/о н/о +8.7 +2.0 63 +5 +5 по сезону 1008.3 1005.0
19 14.07 З 5 н/о н/о +8.1 +2.1 66 +5 +5 тепло 1009.0 1005.7
20 14.07 З 7 35 км {морось} 4/4 600 м
[Cu Sc]
+8.9 +1.7 61 +5 +5 по сезону 1010.3 1007.0
21 14.07 СЗ 3 н/о н/о +6.2 +2.0 74 +3 +3 по сезону 1010.6 1007.3
22 14.07 СЗ 3 н/о н/о +6.3 +2.1 74 +3 +3 по сезону 1010.5 1007.2
23 14.07 З 4 35 км 6/4 600 м
[Sc Ac lent Ci fib]
+9.3 +1.9 60 +7 +7 по сезону 1010.7 1007.4
00 15.07 СЗ 7 н/о н/о +10.7 +2.0 55 +7 +7 по сезону 1010.5 1007.2
01 15.07 СЗ 5 н/о н/о +10.6 +2.2 56 +8 +8 тепло 1010.0 1006.7
02 15.07 СЗ 9 35 км 9/5 600 м
[Sc Ac lent Cs]
+11.2 +3.0 57 +8 +8 по сезону 1008.5 1005.2 +4.4
03 15.07 СЗ 10 н/о н/о +12.2 +4.0 57 +9 +9 по сезону 1007.1 1003.8
04 15.07 СЗ 10 н/о н/о +13.3 +4.9 57 +10 +10 тепло 1005.1 1001.8
05 15.07 З 10 40 км 8/4 1000 м
[Cu Sc Ac lent Ci fib]
+14.4 +4.8 52 +12 +12 тепло 1005.2 1001.9
06 15.07 З 8 н/о н/о +13.8 +4.0 52 +11 +11 по сезону 1006.0 1002.7
07 15.07 СЗ 7 н/о н/о +13.3 +3.8 53 +11 +11 тепло 1005.6 1002.3
08 15.07 З 9 35 км 9/8 1000 м
[Cu Sc Ac lent Cs]
+12.9 +4.7 57 +10 +10 тепло 1005.5 1002.2
09 15.07 ЮЗ 7 н/о н/о +13.2 +4.8 57 +11 +11 тепло 1006.5 1003.2
10 15.07 ЮЗ 9 н/о н/о +13.1 +4.9 57 +10 +10 тепло 1007.2 1003.9
11 15.07 ЮЗ 7 35 км 9/4 1000 м
[Sc Ac As Cs]
+12.8 +4.8 58 +10 +10 тепло 1007.3 1004.0
12 15.07 З 7 н/о н/о +13.1 +4.4 56 +11 +11 тепло 1007.2 1003.9
13 15.07 З 5 н/о н/о +13.0 +4.2 55 +11 +11 тепло 1007.5 1004.2
14 15.07 СЗ 7 25 км слаб. морось 9/6 1000 м
[Sc As op]
+12.6 +4.5 58 +10 +10 тепло 1007.5 1004.2 +14.8
15 15.07 З 8 н/о н/о +12.8 +4.3 56 +10 +10 тепло 1007.2 1003.9
16 15.07 З 8 н/о н/о +12.4 +4.8 60 +10 +10 тепло 1006.7 1003.4
17 15.07 З 5 30 км {морось} 9/8 600 м
[Sc Ac trans Ci sp]
+12.1 +4.9 61 +10 +10 тепло 1007.0 1003.7
18 15.07 Ю 3 н/о н/о +12.0 +5.3 64 +11 +11 тепло 1007.5 1004.2
19 15.07 З 3 н/о н/о +11.6 +6.1 69 +10 +10 тепло 1007.8 1004.5
20 15.07 ЮВ 2 20 км в посл. час морось 8/8 600 м
[Sc]
+10.0 +7.3 83 +9 +9 тепло 1008.2 1004.9
21 15.07 СЗ 3 н/о н/о +10.3 +6.5 77 +9 +9 тепло 1008.6 1005.3
22 15.07 ЮЗ 6 н/о н/о +11.8 +4.8 62 +9 +9 тепло 1009.2 1005.9
23 15.07 ЮЗ 7 35 км 3/3 600 м
[Sc]
+12.9 +4.4 56 +11 +11 тепло 1009.1 1005.8
00 16.07 З 5 н/о н/о +12.7 +4.6 58 +11 +11 тепло 1009.8 1006.5
01 16.07 ЮЗ 6 н/о н/о +13.2 +4.5 56 +11 +11 тепло 1009.9 1006.6
02 16.07 ЮЗ 7 40 км 6/6 1000 м
[Cu Sc]
+13.5 +3.8 52 +11 +12 тепло 1009.4 1006.1 +9.3
03 16.07 З 6 н/о н/о +13.9 +2.3 45 +12 +12 тепло 1009.1 1005.8
04 16.07 З 5 н/о н/о +13.9 +2.9 47 +12 +12 тепло 1008.9 1005.6
05 16.07 ЮЗ 3 40 км 6/6 1500 м
[Sc]
+14.6 +2.8 45 +14 +14 тепло 1009.3 1006.0
06 16.07 ЮЗ 8 н/о н/о +13.6 +2.8 48 +11 +11 по сезону 1009.4 1006.1
07 16.07 З 4 н/о н/о +12.7 +3.6 54 +11 +11 тепло 1010.1 1006.8
09 16.07 СЗ 3 н/о н/о +11.1 +4.2 62 +9 +9 по сезону 1010.2 1006.9

 

Местоположение метеостанции Хобарт аэропорт (Тасмания, Австралия): широта -42.83 долгота 147.50 высота над уровнем моря 27 м.

В архиве по умолчанию представлена погода в Хобарт аэропорту за последнюю неделю. Архивные данные за месяц целиком и за предыдущие месяцы, начиная с января 2011 года, Вы можете получить, выбрав интересующий диапазон дат из раскрывающегося списка и нажав кнопку "Ввод!".


*Определитесь, кто Вы:
робот инопланетянин человек

Внимание! Время в таблицах - всемирное. Для получения местного времени необходимо прибавить поправку, которая равна 10 ч.

Смотрите также архив погоды в соседних городах и на ближайших метеорологических станциях:

Погода в Хобарте (Тасмания, Австралия) (15 км)
Погода в Маунт Веллингтон (Тасмания, Австралия) (17 км)
Погода в Кэмпании (Тасмания, Австралия) (18 км)
Погода в Дуналли (Страуд-Пойнт) (Тасмания, Австралия) (25 км)
Погода в Грове (Тасмания, Австралия) (39 км)
Погода в Таннаке (Тасмания, Австралия) (42 км)
Погода на Острове Марии (Тасмания, Австралия) (46 км)
Погода в Буши Парк (Тасмания, Австралия) (50 км)
Погода на Острове Тасман (Тасмания, Австралия) (60 км)
Погода в Уарре (Тасмания, Австралия) (70 км)

Пояснения к столбцам:

Ветер - указаны скорость ветра в м/с - средняя за 10 мин, порывы в срок и между сроками (в фигурных скобках) и направление, откуда дует ветер: С - северный, СВ - северо-восточный, В - восточный, ЮВ - юго-восточный, Ю - южный, ЮЗ - юго-западный, З - западный, СЗ - северо-западный.
Видимость - горизонтальная дальность видимости в метрах или километрах. При видимости от 1 до 10 км при отсутствии осадков обычно наблюдается дымка, при ухудшении видимости до 1 км и менее - туман. В сухую погоду видимость может ухудшаться дымом, пылью или мглою.
Явления - указаны атмосферные явления, наблюдавшиеся в срок или в последний час перед сроком; фигурными скобками обозначены явления, наблюдавшиеся между сроками (за 1-3 часа до срока); квадратными скобками обозначены град или гололедные отложения с указанием их диаметра в мм.
Облачность - указаны через наклонную черту общая и нижняя облачность в баллах и высота нижней границы облаков в метрах; квадратными скобками обозначены формы облаков: Ci - перистые, Cs - перисто-слоистые, Cc - перисто-кучевые, Ac - высококучевые, As - высокослоистые, Sc - слоисто-кучевые, Ns - слоисто-дождевые, Cu - кучевые, Cb - кучево-дождевые. Подробнее классификацию облаков см. в Атласе облаков (PDF).
T - Температура воздуха - температура, измеренная на высоте 2 м над землей.
Td - Температура точки росы - температура, при понижении до которой содержащийся в воздухе водяной пар достигнет насыщения.
f - Относительная влажность воздуха - влажноcть воздуха, измеренная на высоте 2 м над землей.
Te - Эффективная температура - температура, которую ощущает одетый по сезону человек в тени. Характеристика душности погоды. При расчете учитывается влияние влажности воздуха и скорости ветра на теплоощущения человека.
Tes - Эффективная температура на солнце - температура, которую ощущает человек, с поправкой на солнечный нагрев. Характеристика знойности погоды. Зависит от высоты солнца над горизонтом, облачности и скорости ветра. Ночью, в пасмурную погоду, а также при ветре 12 м/с и более поправка равна нулю.
P - Атмосферное давление - приведенное к уровню моря атмосферное давление.
Po - Атмосферное давление - измеренное на уровне метеостанции атмосферное давление.
Tmin - Минимальная температура - минимум температуры воздуха на высоте 2 м над землей.
Tmax - Максимальная температура - максимум температуры воздуха на высоте 2 м над землей.
R - Количество осадков - Количество выпавших осадков за период времени, мм. При наведении курсора мыши на число - период времени, за который выпало указанное количество осадков.
R24 - Количество осадков - Количество выпавших осадков за 24 часа, мм.
S - Снежный покров - Высота снежного покрова, см. При наведении курсора мыши на число - состояние снежного покрова и степень покрытия местности в баллах.